KISN/ISN METAR and TAF weather

Enter ICAO airport designator
Station Type Date Time Source
KISN METAR 2019/10/18 13:53 UTC NOAA

KISN 181353Z AUTO RMK AO2 SLPNO PWINO FZRANO TSNO PNO $


Station Type Date Time Source
KISN Decoded METAR 2019/10/18 13:53 UTC NOAA

SLOULIN FIELD INTERNATIONAL AIRPORT, ND, United States (KISN) 48-11N 103-39W 579M
Oct 18, 2019 - 09:53 AM EDT / 2019.10.18 1353 UTC
ob: KISN 181353Z AUTO RMK AO2 SLPNO PWINO FZRANO TSNO PNO
cycle: 14

Station Type Date Time Source
KISN TAF 2019/12/28 00:30 UTC NOAA

TAF KISN 282328Z 2900/2924 32006KT P6SM BKN150
FM290300 35006KT P6SM BKN026
FM290600 35007KT P6SM BKN009
FM291300 34007KT P6SM OVC004
FM291700 34011KT P6SM BKN009
FM292000 33012KT P6SM BKN015

Example: see airport list